#timestamp,LO_Frequency,Hit,StdDev 
1457298015.9,286046997.5,Y
1457298035.7,286047001.2,P
1457298055.5,286047002.1,N
1457298075.3,286046996.5,N
1457298095.2,286046995.8,N
1457298115.0,286046993.6,N
1457298115.9,286046993.6,N
1457298135.7,286046997.7,N
1457298155.6,286046997.1,N
1457298175.4,286046995.1,N
1457298195.2,286046995.8,N
1457298215.1,286046995.4,N
1457298216.0,286046995.4,N
1457298235.8,286046993.7,N
1457298255.6,286046994.3,N
1457298275.5,286046996.2,N
1457298295.3,286046991.6,Y
1457298315.1,286046994.6,P
1457298335.9,286046990.5,P
1457298355.7,286046991.8,P
1457298375.5,286046994.5,N
1457298395.4,286046993.8,N
1457298415.2,286046992.4,Y
1457298435.0,286046998.5,P
1457298435.9,286046998.5,N
1457298455.8,286046997.0,N
1457298475.6,286046997.3,N
1457298495.4,286046998.2,N
1457298515.3,286047000.3,N
1457298535.1,286046999.2,N
1457298536.0,286046999.2,N
1457298555.8,286046997.8,N
1457298575.7,286046998.0,N
1457298595.5,286046995.8,N
1457298615.3,286046995.1,N
1457298635.2,286046996.2,N
1457298655.9,286046997.0,N
1457298675.7,286046993.8,Y
1457298695.6,286046993.9,P
1457298715.4,286046993.7,P
1457298735.2,286046992.4,P
1457298755.1,286046993.2,Y
1457298756.0,286046993.2,P
1457298775.8,286046996.6,P
1457298795.6,286046998.5,N
1457298815.5,286046998.4,N
1457298835.3,286046999.0,N
1457298855.1,286046999.0,N
1457298875.8,286046998.7,N
1457298895.7,286046997.2,N
1457298915.5,286046997.5,N
1457298935.3,286046998.8,N
1457298955.2,286046999.4,N
1457298975.0,286046996.6,N
1457298975.9,286046996.6,N
1457298995.7,286046998.2,N
1457299015.6,286046997.8,N
1457299035.4,286046997.2,N
1457299055.2,286046997.8,N
1457299075.1,286047000.6,N
1457299076.0,286047000.6,N
1457299095.8,286047000.3,N
1457299115.6,286047002.0,N
1457299135.5,286047005.5,N
1457299155.3,286047003.2,N
1457299175.1,286047000.2,N
1457299195.9,286047007.0,N
1457299215.7,286047003.8,N
1457299235.5,286047001.4,N
1457299255.3,286047000.2,N
1457299275.2,286047003.3,N
1457299295.0,286047002.8,N
1457299295.9,286047002.8,N
1457299315.7,286047000.0,N
1457299335.6,286046998.1,N
1457299355.4,286047001.8,N
1457299375.2,286047001.1,N
1457299395.1,286047000.2,N
1457299396.0,286047000.2,N
1457299415.8,286047003.0,N
1457299435.6,286047003.0,N
1457299455.5,286047005.4,N
1457299475.3,286047006.9,N
1457299495.1,286047006.7,N
1457299515.9,286047006.4,N
1457299535.7,286047010.3,Y
1457299555.5,286047010.5,P
1457299575.4,286047012.2,N
1457299595.2,286047015.2,P
1457299615.0,286047013.1,N
1457299615.9,286047013.1,N
1457299635.8,286047013.8,Y
1457299655.6,286047002.4,P
1457299675.4,286047000.7,N
1457299695.3,286047000.2,N
1457299715.1,286046998.1,N
1457299716.0,286046998.1,N
1457299735.8,286046998.5,N
1457299755.7,286046999.2,N
1457299775.5,286046997.8,N
1457299795.3,286047000.3,N
1457299815.1,286047000.5,N
1457299835.9,286047000.3,N
1457299855.7,286047004.2,N
1457299875.5,286047003.1,N
1457299895.4,286047003.5,N
1457299915.2,286047002.9,N
1457299935.0,286047002.2,N
1457299935.9,286047002.2,N
1457299955.8,286047005.4,N
1457299975.6,286047005.4,N
1457299995.4,286047004.9,N
1457300015.3,286047005.8,N
1457300035.1,286047003.0,N
1457300036.0,286047003.0,N
1457300055.8,286047006.0,N
1457300075.7,286047003.4,N
1457300095.5,286047002.3,N
1457300115.3,286046999.7,N
1457300135.1,286047001.9,N
1457300155.9,286047001.9,N
1457300175.7,286047001.9,N
1457300195.5,286047002.7,N
1457300215.4,286047003.9,N
1457300235.2,286047003.9,N
1457300255.0,286047002.4,N
1457300255.9,286047002.4,N
1457300275.8,286046999.7,N
1457300295.6,286047002.4,N
1457300315.4,286047002.3,N
1457300335.3,286047006.0,Y
1457300355.1,286046998.9,P
1457300375.8,286046997.1,N
1457300395.7,286047001.0,N
1457300415.5,286046996.6,N
1457300435.3,286046996.2,N
1457300455.2,286046993.3,N
1457300475.9,286046991.9,N
1457300495.7,286046993.0,N
1457300515.6,286046992.4,N
1457300535.4,286046992.2,N
1457300555.2,286046996.0,N
1457300575.0,286046997.6,N
1457300576.0,286046997.6,N
1457300595.8,286046999.2,N
1457300615.6,286046995.1,N
1457300635.4,286046997.1,N
1457300655.3,286046995.6,N
1457300675.1,286046995.3,N
1457300695.8,286046997.0,N
1457300715.7,286046998.5,N
1457300735.5,286047002.0,N
1457300755.3,286046998.7,N
1457300775.2,286046995.0,N
1457300795.9,286047001.1,N
1457300815.7,286046996.8,N
1457300835.6,286046999.0,N
1457300855.4,286046996.5,N
1457300875.2,286046995.4,N
1457300895.0,286046995.1,N
1457300896.0,286046995.1,N
1457300915.8,286047000.9,N
1457300935.6,286046999.2,N
1457300955.4,286046997.1,N
1457300975.3,286046998.5,N
1457300995.1,286046997.8,N
1457301015.8,286046996.7,N
1457301035.7,286046995.4,N
1457301055.5,286046995.3,N
1457301075.3,286046995.7,N
1457301095.2,286046998.7,N
1457301115.9,286046999.0,N
1457301135.7,286046997.5,N
1457301155.6,286046999.2,N
1457301175.4,286046996.5,N
1457301195.2,286046999.4,N
1457301215.1,286046999.5,N
1457301216.0,286046999.5,N
1457301235.8,286046999.5,N
1457301255.6,286046997.9,N
1457301275.4,286046999.2,N
1457301295.3,286046998.2,N
1457301315.1,286046995.4,N
1457301335.8,286046995.4,N
1457301355.7,286046994.4,Y
1457301375.5,286046995.7,P
1457301395.3,286046991.7,P
1457301415.2,286046993.9,N
1457301435.0,286046993.5,N
1457301435.9,286046993.5,Y
1457301455.7,286046995.0,P
1457301475.6,286046995.4,P
1457301495.4,286046995.1,P
1457301515.2,286046996.2,Y
1457301535.1,286047003.8,P
1457301536.0,286047003.8,N
1457301555.8,286046998.3,N
1457301575.6,286046998.2,N
1457301595.5,286046998.9,N
